When you browse on this site, cookies collect data to enhance your experience and personalize the content and advertising you see.
Visit our Privacy Policy to learn more. By continuing to use the site, you agree to this use of cookies and data.
  • In Hungary
  • List of Countries
  • For 7 days
  • Water Temperature
  • Satellite Maps
  • Weather Map
  • News
  • Weather Widgets
  • user-avatar
    Login

    Hourly Weather Zavallya

    Today, 19 November, Monday

    Time Temperature Precipitation Wind Pressure Humidity
    00:00 +1°C° 0 mm 2 mps 753 mmHg 75%
    01:00 +1°C° 0 mm 2 mps 753 mmHg 75%
    02:00 +2°C° 0 mm 1 mps 753 mmHg 74%
    03:00 +1°C° 0 mm 2 mps 753 mmHg 75%
    04:00 +1°C° 0 mm 2 mps 753 mmHg 76%
    05:00 0°C° 0 mm 3 mps 753 mmHg 76%
    06:00 0°C° 0.2 mm 3 mps 753 mmHg 79%
    07:00 -1°C° 0.2 mm 3 mps 753 mmHg 81%
    08:00 -1°C° 0.2 mm 3 mps 753 mmHg 83%
    09:00 -1°C° 0.4 mm 3 mps 753 mmHg 84%
    10:00 -2°C° 0.4 mm 4 mps 753 mmHg 85%
    11:00 -1°C° 0.4 mm 4 mps 753 mmHg 85%
    12:00 -1°C° 0.4 mm 4 mps 753 mmHg 85%
    13:00 0°C° 0.4 mm 3 mps 752 mmHg 85%
    14:00 0°C° 0.4 mm 3 mps 752 mmHg 85%
    15:00 0°C° 0.6 mm 3 mps 753 mmHg 87%
    16:00 0°C° 0.6 mm 3 mps 753 mmHg 88%
    17:00 0°C° 0.6 mm 3 mps 753 mmHg 90%
    18:00 0°C° 0.4 mm 3 mps 753 mmHg 90%
    19:00 0°C° 0.4 mm 3 mps 753 mmHg 90%
    20:00 -1°C° 0.4 mm 3 mps 754 mmHg 90%
    21:00 -1°C° 0.1 mm 3 mps 754 mmHg 90%
    22:00 -1°C° 0.1 mm 3 mps 754 mmHg 89%
    23:00 -1°C° 0.1 mm 2 mps 754 mmHg 89%

    Tomorrow, 20 November, Tuesday

    Time Temperature Precipitation Wind Pressure Humidity
    00:00 -1°C° 0 mm 2 mps 754 mmHg 89%
    01:00 -2°C° 0 mm 2 mps 755 mmHg 89%
    02:00 -2°C° 0 mm 2 mps 755 mmHg 89%
    03:00 -2°C° 0 mm 2 mps 755 mmHg 89%
    04:00 -2°C° 0 mm 2 mps 755 mmHg 89%
    05:00 -3°C° 0 mm 2 mps 755 mmHg 89%
    06:00 -3°C° 0 mm 2 mps 755 mmHg 88%
    07:00 -1°C° 0 mm 1 mps 755 mmHg 88%
    08:00 -1°C° 0 mm 1 mps 755 mmHg 87%
    09:00 -2°C° 0 mm 2 mps 755 mmHg 86%
    10:00 -1°C° 0 mm 2 mps 755 mmHg 84%
    11:00 -1°C° 0 mm 3 mps 755 mmHg 82%
    12:00 0°C° 0 mm 3 mps 755 mmHg 82%
    13:00 0°C° 0 mm 3 mps 755 mmHg 82%
    14:00 0°C° 0 mm 3 mps 754 mmHg 82%
    15:00 +1°C° 0 mm 2 mps 754 mmHg 84%
    16:00 -1°C° 0 mm 2 mps 754 mmHg 85%
    17:00 -1°C° 0 mm 2 mps 754 mmHg 87%
    18:00 -1°C° 0 mm 3 mps 754 mmHg 88%
    19:00 -1°C° 0 mm 3 mps 754 mmHg 88%
    20:00 -2°C° 0 mm 3 mps 754 mmHg 89%
    21:00 -2°C° 0 mm 3 mps 755 mmHg 89%
    22:00 -3°C° 0 mm 4 mps 755 mmHg 90%
    23:00 -3°C° 0 mm 4 mps 755 mmHg 90%

    Day after tomorrow, 21 November, Wednesday

    Time Temperature Precipitation Wind Pressure Humidity
    00:00 -3°C° 0 mm 4 mps 755 mmHg 91%
    01:00 -3°C° 0 mm 4 mps 755 mmHg 91%
    02:00 -3°C° 0 mm 4 mps 755 mmHg 91%
    03:00 -3°C° 0 mm 4 mps 754 mmHg 91%
    04:00 -3°C° 0 mm 4 mps 754 mmHg 91%
    05:00 -4°C° 0 mm 4 mps 754 mmHg 91%
    06:00 -4°C° 0 mm 4 mps 754 mmHg 91%
    07:00 -4°C° 0 mm 4 mps 755 mmHg 91%
    08:00 -4°C° 0 mm 4 mps 755 mmHg 91%
    09:00 -3°C° 0 mm 4 mps 755 mmHg 89%
    10:00 -3°C° 0 mm 4 mps 755 mmHg 87%
    11:00 -2°C° 0 mm 4 mps 755 mmHg 85%
    12:00 -1°C° 0 mm 3 mps 755 mmHg 84%
    13:00 -1°C° 0 mm 3 mps 755 mmHg 83%
    14:00 0°C° 0 mm 3 mps 755 mmHg 81%
    15:00 -1°C° 0 mm 3 mps 755 mmHg 83%
    16:00 -1°C° 0 mm 2 mps 755 mmHg 85%
    17:00 -1°C° 0 mm 2 mps 756 mmHg 87%
    18:00 -2°C° 0 mm 2 mps 756 mmHg 88%
    19:00 -2°C° 0 mm 2 mps 756 mmHg 89%
    20:00 -2°C° 0 mm 2 mps 756 mmHg 90%
    21:00 -3°C° 0 mm 2 mps 757 mmHg 91%
    22:00 -3°C° 0 mm 2 mps 757 mmHg 91%
    23:00 -3°C° 0 mm 2 mps 757 mmHg 92%

    22 November, Thursday

    Time Temperature Precipitation Wind Pressure Humidity
    00:00 -4°C° 0 mm 2 mps 757 mmHg 92%
    01:00 -2°C° 0 mm 1 mps 757 mmHg 93%
    02:00 -2°C° 0 mm 1 mps 757 mmHg 93%
    03:00 -2°C° 0 mm 1 mps 757 mmHg 93%
    04:00 -2°C° 0 mm 1 mps 757 mmHg 93%
    05:00 -2°C° 0 mm 1 mps 757 mmHg 93%
    06:00 -2°C° 0 mm 1 mps 757 mmHg 93%
    07:00 -2°C° 0 mm 1 mps 758 mmHg 92%
    08:00 -2°C° 0 mm 1 mps 758 mmHg 92%
    09:00 -1°C° 0 mm 1 mps 758 mmHg 88%
    10:00 0°C° 0 mm 1 mps 758 mmHg 84%
    11:00 +1°C° 0 mm 1 mps 758 mmHg 80%
    12:00 +1°C° 0 mm 1 mps 758 mmHg 78%
    13:00 +1°C° 0 mm 1 mps 758 mmHg 77%
    14:00 +2°C° 0 mm 1 mps 757 mmHg 75%
    15:00 +1°C° 0 mm 1 mps 758 mmHg 78%
    16:00 0°C° 0 mm 1 mps 758 mmHg 81%
    17:00 -1°C° 0 mm 1 mps 758 mmHg 84%
    18:00 -1°C° 0 mm 1 mps 758 mmHg 84%
    19:00 -1°C° 0 mm 1 mps 758 mmHg 85%
    20:00 -2°C° 0 mm 0 mps 759 mmHg 85%
    21:00 -2°C° 0 mm 0 mps 759 mmHg 85%
    22:00 -2°C° 0 mm 0 mps 759 mmHg 85%
    23:00 -3°C° 0 mm 0 mps 759 mmHg 84%

    23 November, Friday

    Time Temperature Precipitation Wind Pressure Humidity
    00:00 -3°C° 0 mm 0 mps 759 mmHg 84%
    01:00 -3°C° 0 mm 0 mps 759 mmHg 84%
    02:00 -2°C° 0 mm 1 mps 760 mmHg 84%
    03:00 -2°C° 0 mm 1 mps 760 mmHg 84%
    04:00 -2°C° 0 mm 1 mps 760 mmHg 84%
    05:00 -2°C° 0 mm 1 mps 760 mmHg 84%
    06:00 -2°C° 0 mm 1 mps 760 mmHg 84%
    07:00 -2°C° 0 mm 1 mps 761 mmHg 84%
    08:00 -2°C° 0 mm 1 mps 761 mmHg 84%
    09:00 -1°C° 0 mm 1 mps 761 mmHg 80%
    10:00 0°C° 0 mm 1 mps 761 mmHg 76%
    11:00 +1°C° 0 mm 1 mps 761 mmHg 72%
    12:00 +2°C° 0 mm 1 mps 761 mmHg 70%
    13:00 +2°C° 0 mm 1 mps 761 mmHg 69%
    14:00 +2°C° 0 mm 1 mps 761 mmHg 68%
    15:00 +1°C° 0 mm 1 mps 761 mmHg 71%
    16:00 0°C° 0 mm 1 mps 761 mmHg 75%
    17:00 -1°C° 0 mm 1 mps 761 mmHg 78%
    18:00 -1°C° 0 mm 1 mps 762 mmHg 79%
    19:00 -1°C° 0 mm 1 mps 762 mmHg 79%
    20:00 -1°C° 0 mm 1 mps 762 mmHg 79%
    21:00 -1°C° 0 mm 1 mps 762 mmHg 80%
    22:00 -1°C° 0 mm 1 mps 762 mmHg 80%
    23:00 -4°C° 0 mm 2 mps 762 mmHg 81%

    24 November, Saturday

    Time Temperature Precipitation Wind Pressure Humidity
    00:00 -4°C° 0 mm 2 mps 762 mmHg 82%
    01:00 -4°C° 0 mm 2 mps 762 mmHg 82%
    02:00 -4°C° 0 mm 2 mps 761 mmHg 83%
    03:00 -4°C° 0 mm 2 mps 761 mmHg 83%
    04:00 -5°C° 0 mm 2 mps 761 mmHg 84%
    05:00 -5°C° 0 mm 2 mps 761 mmHg 84%
    06:00 -5°C° 0 mm 2 mps 761 mmHg 84%
    07:00 -5°C° 0 mm 2 mps 761 mmHg 84%
    08:00 -5°C° 0 mm 2 mps 760 mmHg 84%
    09:00 -4°C° 0 mm 2 mps 760 mmHg 80%
    10:00 -3°C° 0 mm 2 mps 760 mmHg 76%
    11:00 -2°C° 0 mm 2 mps 760 mmHg 72%
    12:00 -1°C° 0 mm 2 mps 759 mmHg 71%
    13:00 -1°C° 0 mm 2 mps 759 mmHg 71%
    14:00 -1°C° 0 mm 2 mps 758 mmHg 71%
    15:00 -1°C° 0 mm 2 mps 758 mmHg 74%
    16:00 -2°C° 0 mm 2 mps 758 mmHg 78%
    17:00 -3°C° 0 mm 2 mps 758 mmHg 81%
    18:00 -4°C° 0 mm 2 mps 758 mmHg 81%
    19:00 -4°C° 0 mm 2 mps 757 mmHg 81%
    20:00 -4°C° 0 mm 2 mps 757 mmHg 81%
    21:00 -4°C° 0 mm 2 mps 757 mmHg 81%
    22:00 -4°C° 0 mm 2 mps 757 mmHg 81%
    23:00 -4°C° 0 mm 2 mps 757 mmHg 81%
    Show more